Location: C�mpuri de-Sus
(45.9500°N, 22.5500°E)
Time: 06:58:34
(UTC+00:00)

Cosmos 2278 Rocket - Pass Details

Date: 04 June 2022
Orbit: 840 x 846 km, 71.0° (Epoch: 03 July)

Event Time Altitude Azimuth Distance (km) Brightness Sun altitude
Rises 19:44:05 0° 340° (NNW) 3,418 6.9 -12.1°
Reaches altitude 10° 19:46:59 10° 353° (N) 2,478 5.6 -12.4°
Maximum altitude 19:51:39 25° 48° (NE) 1,636 3.8 -12.9°
Drops below altitude 10° 19:56:17 10° 103° (ESE) 2,465 4.2 -13.4°
Enters shadow 19:56:18 10° 103° (ESE) 2,471 4.2 -13.4°
